Find OneWeb SL0592

NORAD ID: 54658 Int'l Des: 2022-166 Owner: ONEWEBN Country: UK Constellation: oneweb operational
別名: ONEWEB-0592 spacetrack, celestrak
LEOCIRCULARPOLARONEWEB_TYPE

現在のビュー

3D地球を読み込み中...

About OneWeb SL0592

OneWeb SL0592 (NORAD 54658) is a oneweb constellation satellite launched Dec 8, 2022 by ONEWEBN of UK. It operates in LEO, CIRCULAR, POLAR, ONEWEB_TYPE orbit with a mass of 148.00 kg.

次回通過

Passes for default location (London). Set your location on the main map for personalized predictions.

高度履歴

Loading altitude history...

軌道要素

1 54658U 22166S 26265.43139651 .00000460 00000-0 10828-2 0 9999
2 54658 87.9289 224.6159 0002320 69.5914 290.5469 13.21823896184284
Epoch: Sep 22, 2026 • Age: 21 hours

現在のステータス

高度 1208.2 km
遠地点 / 近地点 N/A
速度 7.25 km/s
衛星直下点 -87.26°S, 24.38°W
打ち上げ日 Dec 8, 2022
運用期間 3.7 years
タイプ internet

技術仕様

分類 Payload
質量 148.00 kg
乾燥質量 140.00 kg
長さ 1.30 m
直径 1.00 m
スパン 5.00 m
形状 ? Trapezoid+2 pan
製造者 ONEWUS
バスタイプ ARROW
フェーズステータス In Orbit
所有者/国 ONEWEBN/UK

Most Searched